Flag for Bahrain Weather past 2 weeks in Riffa, Bahrain

Now
93 °F

Passing clouds.


Feels Like: 91 °F
Forecast: 89 / 101 °F
Wind: 6 mph from Southwest

Location: Bahrain International Airport

Current Time: May 27, 2015 at 7:45:04 AM

Latest Report: May 27, 2015 at 7:00 AM


Visibility: N/A

Pressure: 29.77 "Hg

Humidity: 26%

Dew point: 54 °F

Location of RiffaLocation

Historic Weather in Riffa — Graph

°F

Riffa temperature yesterday

Maximum temperature yesterday: 95 °F (at 10:00 AM)
Minimum temperature yesterday: 86 °F (at 3:00 AM)
Average temperature yesterday: 92 °F

Past Weeks' High & Low Weather Summary

 TemperatureHumidityPressure
High106 °F (May 22, 10:00 AM)70% (May 23, 9:00 PM)29.86 "Hg (May 23, 9:00 PM)
Low81 °F (May 19, 2:00 AM)10% (May 20, 1:00 PM)29.59 "Hg (May 23, 3:00 PM)
Average91 °F38%29.73 "Hg
* Reported May 12 6:00 AM — May 27 6:00 AM, Riffa, Weather by CustomWeather, © 2015

Note: Actual official high and low records may vary slightly from our data, if they occured in-between our weather recording intervals... More about our weather records

Advertising

Riffa weather history for previous 24 hours

 ConditionsComfort  
Time TempWeatherWind HumidityBarometerVisibility
6:00 AM
Wed, May 27
90 °FSunny.8 mph31%29.74 "Hg10 mi
5:00 AM90 °FSunny.6 mph31%29.74 "Hg10 mi
4:00 AM90 °FClear.3 mph29%29.71 "Hg10 mi
3:00 AM91 °FClear.9 mph30%29.71 "Hg10 mi
2:00 AM91 °FClear.8 mph30%29.71 "Hg10 mi
1:00 AM93 °FClear.6 mph23%29.74 "Hg10 mi
12:00 AM93 °FPassing clouds.5 mph26%29.74 "HgN/A
11:00 PM
Tue, May 26
93 °FClear.5 mph21%29.74 "Hg10 mi
10:00 PM93 °FClear.6 mph24%29.77 "Hg10 mi
9:00 PM91 °FClear.6 mph32%29.77 "Hg10 mi
8:00 PM91 °FClear.7 mph38%29.77 "Hg10 mi
7:00 PM91 °FClear.9 mph38%29.74 "Hg10 mi
6:00 PM95 °FSunny.9 mph26%29.74 "Hg10 mi
5:00 PM95 °FSunny.12 mph28%29.74 "Hg10 mi
4:00 PM95 °FSunny.13 mph32%29.74 "Hg10 mi
3:00 PM95 °FSunny.13 mph32%29.74 "Hg10 mi
2:00 PM95 °FPassing clouds.14 mph39%29.74 "HgN/A
1:00 PM93 °FPassing clouds.13 mph41%29.77 "HgN/A
12:00 PM95 °FSunny.15 mph34%29.80 "Hg10 mi
11:00 AM95 °FSunny.15 mph34%29.80 "Hg10 mi
10:00 AM95 °FSunny.14 mph30%29.80 "Hg10 mi
9:00 AM93 °FSunny.15 mph36%29.80 "Hg10 mi
8:00 AM91 °FSunny.14 mph44%29.80 "Hg10 mi
7:00 AM91 °FSunny.13 mph44%29.77 "Hg10 mi
Weather by CustomWeather, © 2015

See weather overviewHow to use our weather pages